Roanoke, VA

1:49 AM EDT on May 30, 2017 (GMT -0400)
Roanoke Regional-Woodrum

Weather History for KROA - March, 2014

Change the Weather History Date:

Saturday, March 8, 2014

  Actual Average Record
Temperature  
Mean Temperature 48 °F 45 °F  
Max Temperature 67 °F 55 °F 83 °F (2000)
Min Temperature 29 °F 34 °F 10 °F (1960)
Degree Days  
Heating Degree Days 17 20  
Month to date heating degree days 214 170  
Since 1 July heating degree days 3616 3375  
Cooling Degree Days 0 0  
Month to date cooling degree days 0 0  
Year to date cooling degree days 0 0  
Moisture  
Dew Point 28 °F    
Average Humidity 52    
Maximum Humidity 85    
Minimum Humidity 18    
Precipitation  
Precipitation 0.00 in 0.12 in 0.82 in (1995)
Month to date precipitation 1.25 0.82  
Year to date precipitation 7.53 6.63  
Snow  
Snow 0.00 in - - ()
Month to date snowfall 1.8  
Since 1 July snowfall 24.2  
Snow Depth 0.00 in    
Sea Level Pressure  
Sea Level Pressure 30.00 in    
Wind  
Wind Speed 7 mph (West)    
Max Wind Speed 18 mph    
Max Gust Speed 25 mph    
Visibility 10 miles    
Events      
T = Trace of Precipitation, MM = Missing Value Source: NWS Daily Summary

Daily Weather History Graph

Daily Weather History Graph

Search for Another Location

Airport or City:

Trip Planner

Search our weather history database for the weather conditions in past years. The results will help you decide how hot, cold, wet, or windy it might be!

Date:

Astronomy

Mar. 08, 2014 Rise Set
Actual Time 6:41 AM EST 6:20 PM EST
Civil Twilight 6:15 AM EST 6:46 PM EST
Nautical Twilight 5:45 AM EST 7:16 PM EST
Astronomical Twilight 5:14 AM EST 7:47 PM EST
Moon 11:29 AM EST (3/8) 1:09 AM EST (3/8)
Length of Visible Light 12h 31m
Length of Day
11h 39m
First Quarter, 51% of the Moon is Illuminated
Mar 8
First Quarter
Mar 16
Full
Mar 23
Last Quarter
Mar 30
New
Apr 7
First Quarter

Hourly Weather History & Observations

Time (EST) Temp. Windchill Dew Point Humidity Pressure Visibility Wind Dir Wind Speed Gust Speed Precip Events Conditions
12:54 AM 34.0 °F 28.0 °F 28.9 °F 82% 29.99 in 10.0 mi NNE 6.9 mph - N/A   Clear
1:54 AM 33.1 °F 26.1 °F 28.0 °F 82% 30.01 in 10.0 mi NNE 8.1 mph - N/A   Clear
2:54 AM 32.0 °F - 27.0 °F 82% 30.01 in 10.0 mi Calm Calm - N/A   Clear
3:54 AM 30.9 °F - 27.0 °F 85% 30.01 in 10.0 mi Calm Calm - N/A   Clear
4:54 AM 30.9 °F 26.2 °F 27.0 °F 85% 30.01 in 10.0 mi NNE 4.6 mph - N/A   Clear
5:54 AM 30.0 °F 25.2 °F 26.1 °F 85% 30.03 in 10.0 mi East 4.6 mph - N/A   Clear
6:54 AM 35.1 °F - 30.0 °F 82% 30.05 in 10.0 mi Calm Calm - N/A   Partly Cloudy
7:54 AM 44.1 °F 41.5 °F 34.0 °F 68% 30.05 in 10.0 mi NW 4.6 mph - N/A   Scattered Clouds
8:54 AM 48.9 °F - 36.0 °F 61% 30.06 in 10.0 mi South 4.6 mph - N/A   Scattered Clouds
9:54 AM 54.0 °F - 37.0 °F 53% 30.04 in 10.0 mi WSW 11.5 mph - N/A   Scattered Clouds
10:54 AM 57.9 °F - 37.9 °F 47% 30.02 in 10.0 mi SW 8.1 mph - N/A   Mostly Cloudy
11:54 AM 62.1 °F - 37.0 °F 39% 30.01 in 10.0 mi WSW 12.7 mph 18.4 mph N/A   Scattered Clouds
12:54 PM 63.0 °F - 30.9 °F 30% 29.99 in 10.0 mi WSW 11.5 mph 23.0 mph N/A   Scattered Clouds
1:54 PM 64.9 °F - 28.9 °F 26% 29.96 in 10.0 mi West 13.8 mph 20.7 mph N/A   Scattered Clouds
2:54 PM 66.9 °F - 26.1 °F 21% 29.94 in 10.0 mi West 11.5 mph 17.3 mph N/A   Scattered Clouds
3:54 PM 66.0 °F - 21.9 °F 19% 29.94 in 10.0 mi WSW 13.8 mph 21.9 mph N/A   Partly Cloudy
4:54 PM 64.9 °F - 21.9 °F 19% 29.95 in 10.0 mi West 11.5 mph - N/A   Partly Cloudy
5:54 PM 63.0 °F - 21.9 °F 21% 29.97 in 10.0 mi WNW 15.0 mph - N/A   Scattered Clouds
6:54 PM 59.0 °F - 25.0 °F 27% 29.99 in 10.0 mi NW 10.4 mph - N/A   Partly Cloudy
7:54 PM 57.9 °F - 25.0 °F 28% 29.99 in 10.0 mi WNW 9.2 mph - N/A   Clear
8:54 PM 55.0 °F - 24.1 °F 30% 29.99 in 10.0 mi WNW 5.8 mph - N/A   Clear
9:54 PM 52.0 °F - 25.0 °F 35% 29.99 in 10.0 mi Calm Calm - N/A   Clear
10:54 PM 52.0 °F - 25.0 °F 35% 29.98 in 10.0 mi SSW 3.5 mph - N/A   Partly Cloudy
11:54 PM 48.9 °F - 26.1 °F 41% 29.98 in 10.0 mi Variable 4.6 mph - N/A   Clear